Darstellungsparameter: Aktuell verwendete Einstellungen:
Skalierung der Graphiken ... ?
xyx+y,   Skalierungsfaktor:      Skalierung: Modus: x, Faktor: 1
Darstellungszeitraum ... ?
Vom - - bis: - -   Zeitraum: 04.06.2012 - 06.06.2012
Min/Max/Avg-Anzeige ... ?
Zeige MMA aktuell
Zeige MMA Monat
Zeige MMA alles
Zeige --A aktuell
Zeige --A Monat
Zeige --A alles
Keine MMA-Anzeige
MMA:
Keine MMA-Graphiken
MMA-Basis: 04.06.2012 - 06.06.2012
Quicknavigation für Darstellung... ?
Tage:      1T, 2T, 3T, 5T -1T -2T -3T -5T +1T +2T +3T +5T
Wochen: 1W, 2W, 3W -1W -2W -3W +1W +2W +3W
Monate: 1M, 3M, 6M -1M -3M -6M +1M +3M +6M
Jahre:    1J, 3J, 5J, 10J -1J -3J -5J -10J +1J +3J +5J +10J
Nutze für die Darstellung ... ?
Originaldaten oder Mittelwerte auf ...
Stundenbasis Tagesbasis Wochenbasis
Monatsbasis Jahresbasis      Datenbasis: Original-Daten
Darstellen als:
Statistik (Auto) Statistik J:M      Darstellung:
Zur Graphik,    zurück zur Übersicht aller Sensoren.
 
Tabellarische Datenbersicht: ?
 
Sensor: Nr:Datum:Temp:Abs-Feuchte:Windchill:Wind:
Aussen-T/F 1 04-06-2012 00:00:00 11.5 C 9.71 g/m*3 11.5 C 0 km/h
2 04-06-2012 00:05:00 11.4 C 9.75 g/m*3 11.4 C 3.2 km/h
3 04-06-2012 00:10:00 11.4 C 9.75 g/m*3 11.4 C 0 km/h
4 04-06-2012 00:15:00 11.4 C 9.75 g/m*3 11.4 C 0 km/h
5 04-06-2012 00:20:00 11.4 C 9.75 g/m*3 11.4 C 1.6 km/h
6 04-06-2012 00:25:00 11.3 C 9.69 g/m*3 11.3 C 1.6 km/h
7 04-06-2012 00:30:00 11.3 C 9.69 g/m*3 11.3 C 1.6 km/h
8 04-06-2012 00:35:00 11.3 C 9.69 g/m*3 11.3 C 0 km/h
9 04-06-2012 00:40:00 11.3 C 9.69 g/m*3 11.3 C 0 km/h
10 04-06-2012 00:45:00 11.3 C 9.69 g/m*3 11.3 C 0 km/h
11 04-06-2012 00:50:00 11.3 C 9.69 g/m*3 11.3 C 0 km/h
12 04-06-2012 00:55:00 11.3 C 9.69 g/m*3 11.3 C 0 km/h
13 04-06-2012 01:00:00 11.2 C 9.63 g/m*3 11.2 C 3.2 km/h
14 04-06-2012 01:05:00 11.2 C 9.63 g/m*3 11.2 C 3.2 km/h
15 04-06-2012 01:10:00 11.2 C 9.63 g/m*3 11.2 C 3.2 km/h
16 04-06-2012 01:15:00 11.2 C 9.63 g/m*3 11.2 C 0 km/h
17 04-06-2012 01:20:00 11.3 C 9.69 g/m*3 11.3 C 0 km/h
18 04-06-2012 01:25:00 11.2 C 9.63 g/m*3 11.2 C 4.8 km/h
19 04-06-2012 01:30:00 11.2 C 9.63 g/m*3 11.2 C 0 km/h
20 04-06-2012 01:35:00 11.2 C 9.63 g/m*3 11.2 C 0 km/h
21 04-06-2012 01:40:00 11.2 C 9.63 g/m*3 11.2 C 0 km/h
22 04-06-2012 01:45:00 11.2 C 9.63 g/m*3 11.2 C 0 km/h
23 04-06-2012 01:50:00 11.2 C 9.63 g/m*3 11.2 C 0 km/h
24 04-06-2012 01:55:00 11.1 C 9.57 g/m*3 11.1 C 0 km/h
25 04-06-2012 02:00:00 11.1 C 9.57 g/m*3 11.1 C 0 km/h
Sensor: Nr:Datum:Temp:Abs-Feuchte:Windchill:Wind:
Aussen-T/F 26 04-06-2012 02:05:00 11.1 C 9.57 g/m*3 11.1 C 3.2 km/h
27 04-06-2012 02:10:00 11 C 9.51 g/m*3 11 C 1.6 km/h
28 04-06-2012 02:15:00 11.1 C 9.57 g/m*3 11.1 C 0 km/h
29 04-06-2012 02:20:00 11 C 9.41 g/m*3 11 C 0 km/h
30 04-06-2012 02:25:00 10.9 C 9.35 g/m*3 10.9 C 1.6 km/h
31 04-06-2012 02:30:00 11 C 9.41 g/m*3 11 C 0 km/h
32 04-06-2012 02:35:00 11 C 9.41 g/m*3 11 C 0 km/h
33 04-06-2012 02:40:00 11 C 9.41 g/m*3 11 C 0 km/h
34 04-06-2012 02:45:00 11 C 9.51 g/m*3 11 C 0 km/h
35 04-06-2012 02:50:00 10.9 C 9.45 g/m*3 10.9 C 0 km/h
36 04-06-2012 02:55:00 10.9 C 9.45 g/m*3 10.9 C 0 km/h
37 04-06-2012 03:00:00 10.9 C 9.45 g/m*3 10.9 C 0 km/h
38 04-06-2012 03:05:00 10.9 C 9.45 g/m*3 10.9 C 0 km/h
39 04-06-2012 03:10:00 10.9 C 9.45 g/m*3 10.9 C 0 km/h
40 04-06-2012 03:15:00 10.9 C 9.45 g/m*3 10.9 C 0 km/h
41 04-06-2012 03:20:00 10.9 C 9.45 g/m*3 10.9 C 0 km/h
42 04-06-2012 03:25:00 10.9 C 9.45 g/m*3 10.9 C 0 km/h
43 04-06-2012 03:30:00 10.9 C 9.55 g/m*3 10.9 C 0 km/h
44 04-06-2012 03:35:00 10.9 C 9.55 g/m*3 10.9 C 0 km/h
45 04-06-2012 03:40:00 10.9 C 9.55 g/m*3 10.9 C 0 km/h
46 04-06-2012 03:45:00 10.9 C 9.55 g/m*3 10.9 C 1.6 km/h
47 04-06-2012 03:50:00 10.8 C 9.49 g/m*3 10.8 C 1.6 km/h
48 04-06-2012 03:55:00 10.8 C 9.49 g/m*3 10.8 C 0 km/h
49 04-06-2012 04:00:00 10.8 C 9.49 g/m*3 10.8 C 0 km/h
50 04-06-2012 04:05:00 10.8 C 9.49 g/m*3 10.8 C 0 km/h
Sensor: Nr:Datum:Temp:Abs-Feuchte:Windchill:Wind:
Aussen-T/F 51 04-06-2012 04:10:00 10.8 C 9.49 g/m*3 10.8 C 0 km/h
52 04-06-2012 04:15:00 10.8 C 9.49 g/m*3 10.8 C 0 km/h
53 04-06-2012 04:20:00 10.8 C 9.49 g/m*3 10.8 C 0 km/h
54 04-06-2012 04:25:00 10.8 C 9.49 g/m*3 10.8 C 0 km/h
55 04-06-2012 04:30:00 10.8 C 9.49 g/m*3 10.8 C 0 km/h
56 04-06-2012 04:35:00 10.8 C 9.49 g/m*3 10.8 C 0 km/h
57 04-06-2012 04:40:00 10.8 C 9.49 g/m*3 10.8 C 0 km/h
58 04-06-2012 04:45:00 10.8 C 9.49 g/m*3 10.8 C 0 km/h
59 04-06-2012 04:50:00 10.7 C 9.43 g/m*3 10.7 C 0 km/h
60 04-06-2012 04:55:00 10.8 C 9.49 g/m*3 10.8 C 0 km/h
61 04-06-2012 05:00:00 10.8 C 9.49 g/m*3 10.8 C 0 km/h
62 04-06-2012 05:05:00 10.8 C 9.49 g/m*3 10.8 C 0 km/h
63 04-06-2012 05:10:00 10.8 C 9.49 g/m*3 10.8 C 0 km/h
64 04-06-2012 05:15:00 10.8 C 9.49 g/m*3 10.8 C 0 km/h
65 04-06-2012 05:20:00 10.8 C 9.49 g/m*3 10.8 C 0 km/h
66 04-06-2012 05:25:00 10.8 C 9.49 g/m*3 10.8 C 0 km/h
67 04-06-2012 05:30:00 10.8 C 9.59 g/m*3 10.8 C 0 km/h
68 04-06-2012 05:35:00 10.8 C 9.49 g/m*3 10.8 C 0 km/h
69 04-06-2012 05:40:00 10.7 C 9.43 g/m*3 10.7 C 0 km/h
70 04-06-2012 05:45:00 10.6 C 9.37 g/m*3 10.6 C 0 km/h
71 04-06-2012 05:50:00 10.6 C 9.37 g/m*3 10.6 C 0 km/h
72 04-06-2012 05:55:00 10.5 C 9.31 g/m*3 10.5 C 0 km/h
73 04-06-2012 06:00:00 10.4 C 9.25 g/m*3 10.4 C 0 km/h
74 04-06-2012 06:05:00 10.3 C 9.19 g/m*3 10.3 C 0 km/h
75 04-06-2012 06:10:00 10.3 C 9.19 g/m*3 10.3 C 0 km/h
Sensor: Nr:Datum:Temp:Abs-Feuchte:Windchill:Wind:
Aussen-T/F 76 04-06-2012 06:15:00 10.3 C 9.19 g/m*3 10.3 C 1.6 km/h
77 04-06-2012 06:20:00 10.3 C 9.19 g/m*3 10.3 C 0 km/h
78 04-06-2012 06:25:00 10.3 C 9.19 g/m*3 10.3 C 0 km/h
79 04-06-2012 06:30:00 10.4 C 9.25 g/m*3 10.4 C 0 km/h
80 04-06-2012 06:35:00 10.4 C 9.25 g/m*3 10.4 C 0 km/h
81 04-06-2012 06:40:00 10.4 C 9.35 g/m*3 10.4 C 0 km/h
82 04-06-2012 06:45:00 10.4 C 9.35 g/m*3 10.4 C 0 km/h
83 04-06-2012 06:50:00 10.4 C 9.35 g/m*3 10.4 C 0 km/h
84 04-06-2012 06:55:00 10.5 C 9.41 g/m*3 10.5 C 0 km/h
85 04-06-2012 07:00:00 10.6 C 9.47 g/m*3 10.6 C 0 km/h
86 04-06-2012 07:05:00 10.7 C 9.53 g/m*3 10.7 C 0 km/h
87 04-06-2012 07:10:00 10.8 C 9.59 g/m*3 10.8 C 1.6 km/h
88 04-06-2012 07:15:00 10.9 C 9.65 g/m*3 10.9 C 1.6 km/h
89 04-06-2012 07:20:00 11.1 C 9.77 g/m*3 11.1 C 1.6 km/h
90 04-06-2012 07:25:00 11.2 C 9.83 g/m*3 11.2 C 0 km/h
91 04-06-2012 07:30:00 11.2 C 9.83 g/m*3 11.2 C 0 km/h
92 04-06-2012 07:35:00 11.3 C 9.89 g/m*3 11.3 C 3.2 km/h
93 04-06-2012 07:40:00 11.5 C 10.02 g/m*3 11.5 C 3.2 km/h
94 04-06-2012 07:45:00 11.6 C 10.08 g/m*3 11.6 C 3.2 km/h
95 04-06-2012 07:50:00 11.7 C 10.15 g/m*3 11.7 C 3.2 km/h
96 04-06-2012 07:55:00 11.8 C 10.21 g/m*3 11.8 C 1.6 km/h
97 04-06-2012 08:00:00 11.9 C 10.27 g/m*3 11.9 C 1.6 km/h
98 04-06-2012 08:05:00 12.2 C 10.36 g/m*3 12.2 C 4.8 km/h
99 04-06-2012 08:10:00 12.3 C 10.32 g/m*3 12.3 C 3.2 km/h
100 04-06-2012 08:15:00 12.4 C 10.38 g/m*3 12.4 C 0 km/h
Sensor: Nr:Datum:Temp:Abs-Feuchte:Windchill:Wind:
Aussen-T/F 101 04-06-2012 08:20:00 12.6 C 10.4 g/m*3 12.6 C 3.2 km/h
102 04-06-2012 08:25:00 12.7 C 10.46 g/m*3 12.7 C 3.2 km/h
103 04-06-2012 08:30:00 12.7 C 10.46 g/m*3 12.7 C 3.2 km/h
104 04-06-2012 08:35:00 12.8 C 10.42 g/m*3 12.8 C 1.6 km/h
105 04-06-2012 08:40:00 12.9 C 10.48 g/m*3 12.9 C 0 km/h
106 04-06-2012 08:45:00 13.2 C 10.68 g/m*3 13.2 C 3.2 km/h
107 04-06-2012 08:50:00 13.3 C 10.63 g/m*3 13.3 C 1.6 km/h
108 04-06-2012 08:55:00 13.6 C 10.83 g/m*3 13.6 C 0 km/h
109 04-06-2012 09:00:00 13.9 C 11.03 g/m*3 13.9 C 3.2 km/h
110 04-06-2012 09:05:00 14.4 C 11.13 g/m*3 14.4 C 3.2 km/h
111 04-06-2012 09:10:00 14.4 C 10.63 g/m*3 14.4 C 3.2 km/h
112 04-06-2012 09:15:00 14.3 C 10.93 g/m*3 14.3 C 1.6 km/h
113 04-06-2012 09:20:00 14.2 C 10.75 g/m*3 14.2 C 3.2 km/h
114 04-06-2012 09:25:00 14.1 C 10.92 g/m*3 14.1 C 1.6 km/h
115 04-06-2012 09:30:00 14.2 C 10.99 g/m*3 14.2 C 3.2 km/h
116 04-06-2012 09:35:00 14.3 C 11.06 g/m*3 14.3 C 1.6 km/h
117 04-06-2012 09:40:00 14.4 C 10.88 g/m*3 14.4 C 1.6 km/h
118 04-06-2012 09:45:00 14.4 C 11.13 g/m*3 14.4 C 1.6 km/h
119 04-06-2012 09:50:00 14.5 C 10.57 g/m*3 14.5 C 3.2 km/h
120 04-06-2012 09:55:00 14.6 C 10.76 g/m*3 14.6 C 3.2 km/h
121 04-06-2012 10:00:00 14.6 C 10.89 g/m*3 14.6 C 3.2 km/h
122 04-06-2012 10:05:00 14.6 C 11.14 g/m*3 14.6 C 3.2 km/h
123 04-06-2012 10:10:00 14.4 C 11.13 g/m*3 14.4 C 3.2 km/h
124 04-06-2012 10:15:00 14.2 C 11.11 g/m*3 14.2 C 3.2 km/h
125 04-06-2012 10:20:00 13.9 C 11.03 g/m*3 13.9 C 1.6 km/h
Sensor: Nr:Datum:Temp:Abs-Feuchte:Windchill:Wind:
Aussen-T/F 126 04-06-2012 10:25:00 13.8 C 10.96 g/m*3 13.8 C 3.2 km/h
127 04-06-2012 10:30:00 13.8 C 10.96 g/m*3 13.8 C 3.2 km/h
128 04-06-2012 10:35:00 14 C 11.1 g/m*3 14 C 0 km/h
129 04-06-2012 10:40:00 14.6 C 10.76 g/m*3 14.6 C 4.8 km/h
130 04-06-2012 10:45:00 15.1 C 10.84 g/m*3 15.1 C 4.8 km/h
131 04-06-2012 10:50:00 15.3 C 10.84 g/m*3 15.3 C 3.2 km/h
132 04-06-2012 10:55:00 15.4 C 10.9 g/m*3 15.4 C 6.4 km/h
133 04-06-2012 11:00:00 15.6 C 11.04 g/m*3 15.6 C 6.4 km/h
134 04-06-2012 11:05:00 15.6 C 11.04 g/m*3 15.6 C 6.4 km/h
135 04-06-2012 11:10:00 15.6 C 10.77 g/m*3 15.6 C 8.1 km/h
136 04-06-2012 11:15:00 15.7 C 10.7 g/m*3 15.7 C 6.4 km/h
137 04-06-2012 11:20:00 16 C 10.9 g/m*3 16 C 3.2 km/h
138 04-06-2012 11:25:00 16.2 C 11.31 g/m*3 16.2 C 3.2 km/h
139 04-06-2012 11:30:00 16.4 C 10.75 g/m*3 16.4 C 8.1 km/h
140 04-06-2012 11:35:00 16.5 C 11.09 g/m*3 16.5 C 6.4 km/h
141 04-06-2012 11:40:00 16.4 C 10.75 g/m*3 16.4 C 9.7 km/h
142 04-06-2012 11:45:00 16.3 C 10.68 g/m*3 16.3 C 9.7 km/h
143 04-06-2012 11:50:00 16.9 C 10.93 g/m*3 16.9 C 9.7 km/h
144 04-06-2012 11:55:00 17.7 C 11.32 g/m*3 17.7 C 11.3 km/h
145 04-06-2012 12:00:00 17.5 C 10.73 g/m*3 17.5 C 8.1 km/h
146 04-06-2012 12:05:00 17.1 C 10.63 g/m*3 17.1 C 9.7 km/h
147 04-06-2012 12:10:00 16.9 C 10.5 g/m*3 16.9 C 9.7 km/h
148 04-06-2012 12:15:00 16.9 C 10.93 g/m*3 16.9 C 6.4 km/h
149 04-06-2012 12:20:00 17 C 11 g/m*3 17 C 8.1 km/h
150 04-06-2012 12:25:00 17.4 C 10.82 g/m*3 17.4 C 6.4 km/h
Sensor: Nr:Datum:Temp:Abs-Feuchte:Windchill:Wind:
Aussen-T/F 151 04-06-2012 12:30:00 17.8 C 10.78 g/m*3 17.8 C 9.7 km/h
152 04-06-2012 12:35:00 17.8 C 10.93 g/m*3 17.8 C 9.7 km/h
153 04-06-2012 12:40:00 18.1 C 11.12 g/m*3 18.1 C 6.4 km/h
154 04-06-2012 12:45:00 18 C 10.75 g/m*3 18 C 8.1 km/h
155 04-06-2012 12:50:00 17.9 C 10.54 g/m*3 17.9 C 11.3 km/h
156 04-06-2012 12:55:00 17.5 C 10.73 g/m*3 17.5 C 8.1 km/h
157 04-06-2012 13:00:00 17.3 C 10.75 g/m*3 17.3 C 11.3 km/h
158 04-06-2012 13:05:00 16.9 C 11.08 g/m*3 16.9 C 6.4 km/h
159 04-06-2012 13:10:00 16.5 C 11.37 g/m*3 16.5 C 9.7 km/h
160 04-06-2012 13:15:00 16.3 C 11.52 g/m*3 16.3 C 3.2 km/h
161 04-06-2012 13:20:00 16.2 C 11.45 g/m*3 16.2 C 4.8 km/h
162 04-06-2012 13:25:00 16.1 C 11.38 g/m*3 16.1 C 4.8 km/h
163 04-06-2012 13:30:00 16 C 11.31 g/m*3 16 C 8.1 km/h
164 04-06-2012 13:35:00 16.3 C 11.79 g/m*3 16.3 C 3.2 km/h
165 04-06-2012 13:40:00 16.4 C 11.31 g/m*3 16.4 C 11.3 km/h
166 04-06-2012 13:45:00 16.3 C 11.1 g/m*3 16.3 C 9.7 km/h
167 04-06-2012 13:50:00 16.1 C 10.97 g/m*3 16.1 C 9.7 km/h
168 04-06-2012 13:55:00 15.8 C 10.77 g/m*3 15.8 C 11.3 km/h
169 04-06-2012 14:00:00 15.9 C 10.97 g/m*3 15.9 C 6.4 km/h
170 04-06-2012 14:05:00 16 C 11.44 g/m*3 16 C 4.8 km/h
171 04-06-2012 14:10:00 16.3 C 11.1 g/m*3 16.3 C 4.8 km/h
172 04-06-2012 14:15:00 16.9 C 11.22 g/m*3 16.9 C 6.4 km/h
173 04-06-2012 14:20:00 17.3 C 11.2 g/m*3 17.3 C 9.7 km/h
174 04-06-2012 14:25:00 17.5 C 11.33 g/m*3 17.5 C 12.9 km/h
175 04-06-2012 14:30:00 18 C 11.52 g/m*3 18 C 11.3 km/h
Sensor: Nr:Datum:Temp:Abs-Feuchte:Windchill:Wind:
Aussen-T/F 176 04-06-2012 14:35:00 18.4 C 11.64 g/m*3 18.4 C 8.1 km/h
177 04-06-2012 14:40:00 18.7 C 11.69 g/m*3 18.7 C 8.1 km/h
178 04-06-2012 14:45:00 19 C 11.9 g/m*3 19 C 9.7 km/h
179 04-06-2012 14:50:00 19.3 C 10.78 g/m*3 19.3 C 11.3 km/h
180 04-06-2012 14:55:00 19.4 C 10.68 g/m*3 19.4 C 16.1 km/h
181 04-06-2012 15:00:00 19.4 C 10.84 g/m*3 19.4 C 11.3 km/h
182 04-06-2012 15:05:00 19.4 C 10.51 g/m*3 19.4 C 17.7 km/h
183 04-06-2012 15:10:00 19.7 C 10.87 g/m*3 19.7 C 17.7 km/h
184 04-06-2012 15:15:00 19.7 C 10.7 g/m*3 19.7 C 14.5 km/h
185 04-06-2012 15:20:00 20.3 C 10.02 g/m*3 20.3 C 11.3 km/h
186 04-06-2012 15:25:00 20.3 C 9.85 g/m*3 20.3 C 14.5 km/h
187 04-06-2012 15:30:00 20.3 C 9.85 g/m*3 20.3 C 11.3 km/h
188 04-06-2012 15:35:00 19.8 C 9.57 g/m*3 19.8 C 14.5 km/h
189 04-06-2012 15:40:00 19.1 C 9.34 g/m*3 19.1 C 12.9 km/h
190 04-06-2012 15:45:00 18.7 C 9.29 g/m*3 18.7 C 16.1 km/h
191 04-06-2012 15:50:00 18.6 C 9.39 g/m*3 18.6 C 9.7 km/h
192 04-06-2012 15:55:00 18.4 C 9.12 g/m*3 18.4 C 11.3 km/h
193 04-06-2012 16:00:00 18.2 C 9.48 g/m*3 18.2 C 8.1 km/h
194 04-06-2012 16:05:00 18 C 9.68 g/m*3 18 C 8.1 km/h
195 04-06-2012 16:10:00 17.8 C 9.41 g/m*3 17.8 C 9.7 km/h
196 04-06-2012 16:15:00 17.8 C 9.41 g/m*3 17.8 C 11.3 km/h
197 04-06-2012 16:20:00 17.8 C 9.41 g/m*3 17.8 C 6.4 km/h
198 04-06-2012 16:25:00 17.9 C 9.47 g/m*3 17.9 C 17.7 km/h
199 04-06-2012 16:30:00 17.8 C 9.41 g/m*3 17.8 C 12.9 km/h
200 04-06-2012 16:35:00 17.7 C 10.11 g/m*3 17.7 C 11.3 km/h
Sensor: Nr:Datum:Temp:Abs-Feuchte:Windchill:Wind:
Aussen-T/F 201 04-06-2012 16:40:00 17.7 C 9.81 g/m*3 17.7 C 8.1 km/h
202 04-06-2012 16:45:00 17.6 C 9.75 g/m*3 17.6 C 14.5 km/h
203 04-06-2012 16:50:00 17.4 C 9.78 g/m*3 17.4 C 9.7 km/h
204 04-06-2012 16:55:00 17.3 C 10.02 g/m*3 17.3 C 16.1 km/h
205 04-06-2012 17:00:00 16.9 C 10.21 g/m*3 16.9 C 6.4 km/h
206 04-06-2012 17:05:00 16.6 C 10.17 g/m*3 16.6 C 8.1 km/h
207 04-06-2012 17:10:00 16.4 C 10.33 g/m*3 16.4 C 6.4 km/h
208 04-06-2012 17:15:00 16.1 C 10.55 g/m*3 16.1 C 8.1 km/h
209 04-06-2012 17:20:00 15.8 C 10.5 g/m*3 15.8 C 6.4 km/h
210 04-06-2012 17:25:00 15.6 C 10.51 g/m*3 15.6 C 4.8 km/h
211 04-06-2012 17:30:00 15.4 C 10.64 g/m*3 15.4 C 9.7 km/h
212 04-06-2012 17:35:00 15.3 C 10.71 g/m*3 15.3 C 8.1 km/h
213 04-06-2012 17:40:00 15.1 C 10.71 g/m*3 15.1 C 11.3 km/h
214 04-06-2012 17:45:00 14.9 C 10.83 g/m*3 14.9 C 12.9 km/h
215 04-06-2012 17:50:00 14.9 C 10.83 g/m*3 14.9 C 4.8 km/h
216 04-06-2012 17:55:00 14.9 C 10.71 g/m*3 14.9 C 9.7 km/h
217 04-06-2012 18:00:00 14.9 C 10.58 g/m*3 14.9 C 16.1 km/h
218 04-06-2012 18:05:00 14.8 C 10.51 g/m*3 14.8 C 12.9 km/h
219 04-06-2012 18:10:00 14.8 C 10.64 g/m*3 14.8 C 6.4 km/h
220 04-06-2012 18:15:00 14.8 C 10.51 g/m*3 14.8 C 16.1 km/h
221 04-06-2012 18:20:00 14.8 C 10.39 g/m*3 14.8 C 11.3 km/h
222 04-06-2012 18:25:00 14.8 C 10.64 g/m*3 14.8 C 11.3 km/h
223 04-06-2012 18:30:00 14.8 C 10.64 g/m*3 14.8 C 11.3 km/h
224 04-06-2012 18:35:00 14.8 C 10.64 g/m*3 14.8 C 6.4 km/h
225 04-06-2012 18:40:00 14.9 C 10.58 g/m*3 14.9 C 14.5 km/h
Sensor: Nr:Datum:Temp:Abs-Feuchte:Windchill:Wind:
Aussen-T/F 226 04-06-2012 18:45:00 15.1 C 10.58 g/m*3 15.1 C 6.4 km/h
227 04-06-2012 18:50:00 15.1 C 10.45 g/m*3 15.1 C 12.9 km/h
228 04-06-2012 18:55:00 14.9 C 10.45 g/m*3 14.9 C 6.4 km/h
229 04-06-2012 19:00:00 14.9 C 10.58 g/m*3 14.9 C 6.4 km/h
230 04-06-2012 19:05:00 14.8 C 10.39 g/m*3 14.8 C 8.1 km/h
231 04-06-2012 19:10:00 14.8 C 10.51 g/m*3 14.8 C 6.4 km/h
232 04-06-2012 19:15:00 14.8 C 10.51 g/m*3 14.8 C 11.3 km/h
233 04-06-2012 19:20:00 14.7 C 10.45 g/m*3 14.7 C 8.1 km/h
234 04-06-2012 19:25:00 14.7 C 10.58 g/m*3 14.7 C 11.3 km/h
235 04-06-2012 19:30:00 14.7 C 10.58 g/m*3 14.7 C 8.1 km/h
236 04-06-2012 19:35:00 14.7 C 10.45 g/m*3 14.7 C 8.1 km/h
237 04-06-2012 19:40:00 14.7 C 10.58 g/m*3 14.7 C 4.8 km/h
238 04-06-2012 19:45:00 14.6 C 10.51 g/m*3 14.6 C 11.3 km/h
239 04-06-2012 19:50:00 14.6 C 10.64 g/m*3 14.6 C 8.1 km/h
240 04-06-2012 19:55:00 14.6 C 10.64 g/m*3 14.6 C 6.4 km/h
241 04-06-2012 20:00:00 14.4 C 10.51 g/m*3 14.4 C 9.7 km/h
242 04-06-2012 20:05:00 14.4 C 10.63 g/m*3 14.4 C 11.3 km/h
243 04-06-2012 20:10:00 14.3 C 10.69 g/m*3 14.3 C 8.1 km/h
244 04-06-2012 20:15:00 14.2 C 10.62 g/m*3 14.2 C 6.4 km/h
245 04-06-2012 20:20:00 14 C 10.61 g/m*3 14 C 9.7 km/h
246 04-06-2012 20:25:00 13.9 C 10.67 g/m*3 13.9 C 6.4 km/h
247 04-06-2012 20:30:00 13.8 C 10.6 g/m*3 13.8 C 22.5 km/h
248 04-06-2012 20:35:00 12.9 C 9.13 g/m*3 12.9 C 22.5 km/h
249 04-06-2012 20:40:00 12 C 8.95 g/m*3 12 C 19.3 km/h
250 04-06-2012 20:45:00 11.3 C 8.77 g/m*3 11.3 C 16.1 km/h
Sensor: Nr:Datum:Temp:Abs-Feuchte:Windchill:Wind:
Aussen-T/F 251 04-06-2012 20:50:00 10.9 C 8.65 g/m*3 8.73 C 17.7 km/h
252 04-06-2012 20:55:00 10.6 C 8.59 g/m*3 9.4 C 9.7 km/h
253 04-06-2012 21:00:00 10.4 C 8.38 g/m*3 9.16 C 9.7 km/h
254 04-06-2012 21:05:00 10.1 C 8.04 g/m*3 7.91 C 16.1 km/h
255 04-06-2012 21:10:00 9.8 C 7.98 g/m*3 8.45 C 9.7 km/h
256 04-06-2012 21:15:00 9.7 C 8.02 g/m*3 8.33 C 9.7 km/h
257 04-06-2012 21:20:00 9.6 C 7.97 g/m*3 8.52 C 8.1 km/h
258 04-06-2012 21:25:00 9.4 C 7.87 g/m*3 7.24 C 14.5 km/h
259 04-06-2012 21:30:00 9.3 C 7.91 g/m*3 8.56 C 6.4 km/h
260 04-06-2012 21:35:00 9.2 C 7.77 g/m*3 6.61 C 17.7 km/h
261 04-06-2012 21:40:00 9.1 C 7.72 g/m*3 7.09 C 12.9 km/h
262 04-06-2012 21:45:00 9.1 C 7.81 g/m*3 6.67 C 16.1 km/h
263 04-06-2012 21:50:00 9 C 7.85 g/m*3 7.81 C 8.1 km/h
264 04-06-2012 21:55:00 9 C 7.85 g/m*3 6.54 C 16.1 km/h
265 04-06-2012 22:00:00 9 C 7.85 g/m*3 7.21 C 11.3 km/h
266 04-06-2012 22:05:00 9 C 7.85 g/m*3 9 C 3.2 km/h
267 04-06-2012 22:10:00 8.9 C 7.8 g/m*3 6.23 C 17.7 km/h
268 04-06-2012 22:15:00 8.9 C 7.8 g/m*3 8.1 C 6.4 km/h
269 04-06-2012 22:20:00 8.9 C 7.71 g/m*3 6.23 C 17.7 km/h
270 04-06-2012 22:25:00 8.9 C 7.71 g/m*3 7.69 C 8.1 km/h
271 04-06-2012 22:30:00 8.9 C 7.8 g/m*3 8.1 C 6.4 km/h
272 04-06-2012 22:35:00 8.9 C 7.71 g/m*3 7.37 C 9.7 km/h
273 04-06-2012 22:40:00 8.9 C 7.71 g/m*3 7.37 C 9.7 km/h
274 04-06-2012 22:45:00 8.8 C 7.75 g/m*3 6.97 C 11.3 km/h
275 04-06-2012 22:50:00 8.8 C 7.75 g/m*3 8.8 C 3.2 km/h
Sensor: Nr:Datum:Temp:Abs-Feuchte:Windchill:Wind:
Aussen-T/F 276 04-06-2012 22:55:00 8.8 C 7.75 g/m*3 7.58 C 8.1 km/h
277 04-06-2012 23:00:00 8.7 C 7.61 g/m*3 6.85 C 11.3 km/h
278 04-06-2012 23:05:00 8.7 C 7.61 g/m*3 7.46 C 8.1 km/h
279 04-06-2012 23:10:00 8.7 C 7.7 g/m*3 6.6 C 12.9 km/h
280 04-06-2012 23:15:00 8.8 C 7.57 g/m*3 7.25 C 9.7 km/h
281 04-06-2012 23:20:00 8.8 C 7.4 g/m*3 7.58 C 8.1 km/h
282 04-06-2012 23:25:00 8.9 C 7.45 g/m*3 7.37 C 9.7 km/h
283 04-06-2012 23:30:00 8.9 C 7.36 g/m*3 7.09 C 11.3 km/h
284 04-06-2012 23:35:00 8.9 C 7.45 g/m*3 8.9 C 4.8 km/h
285 04-06-2012 23:40:00 8.8 C 7.31 g/m*3 6.5 C 14.5 km/h
286 04-06-2012 23:45:00 8.8 C 7.31 g/m*3 7.25 C 9.7 km/h
287 04-06-2012 23:50:00 8.8 C 7.31 g/m*3 7.98 C 6.4 km/h
288 04-06-2012 23:55:00 8.8 C 7.4 g/m*3 8.8 C 4.8 km/h
289 05-06-2012 00:00:00 8.8 C 7.57 g/m*3 8.8 C 4.8 km/h
290 05-06-2012 00:05:00 8.8 C 7.49 g/m*3 7.98 C 6.4 km/h
291 05-06-2012 00:10:00 8.8 C 7.57 g/m*3 7.58 C 8.1 km/h
292 05-06-2012 00:15:00 8.8 C 7.49 g/m*3 8.8 C 4.8 km/h
293 05-06-2012 00:20:00 8.8 C 7.57 g/m*3 8.8 C 3.2 km/h
294 05-06-2012 00:25:00 8.8 C 7.57 g/m*3 8.8 C 4.8 km/h
295 05-06-2012 00:30:00 8.8 C 7.49 g/m*3 7.98 C 6.4 km/h
296 05-06-2012 00:35:00 8.8 C 7.57 g/m*3 8.8 C 4.8 km/h
297 05-06-2012 00:40:00 8.8 C 7.49 g/m*3 7.98 C 6.4 km/h
298 05-06-2012 00:45:00 8.8 C 7.49 g/m*3 8.8 C 4.8 km/h
299 05-06-2012 00:50:00 8.8 C 7.49 g/m*3 8.8 C 4.8 km/h
300 05-06-2012 00:55:00 8.8 C 7.49 g/m*3 7.98 C 6.4 km/h
Sensor: Nr:Datum:Temp:Abs-Feuchte:Windchill:Wind:
Aussen-T/F 301 05-06-2012 01:00:00 8.8 C 7.49 g/m*3 8.8 C 4.8 km/h
302 05-06-2012 01:05:00 8.8 C 7.49 g/m*3 8.8 C 3.2 km/h
303 05-06-2012 01:10:00 8.7 C 7.44 g/m*3 8.7 C 4.8 km/h
304 05-06-2012 01:15:00 8.7 C 7.44 g/m*3 8.7 C 3.2 km/h
305 05-06-2012 01:20:00 8.7 C 7.44 g/m*3 8.7 C 3.2 km/h
306 05-06-2012 01:25:00 8.7 C 7.44 g/m*3 8.7 C 3.2 km/h
307 05-06-2012 01:30:00 8.8 C 7.49 g/m*3 8.8 C 4.8 km/h
308 05-06-2012 01:35:00 8.8 C 7.49 g/m*3 8.8 C 3.2 km/h
309 05-06-2012 01:40:00 8.8 C 7.49 g/m*3 7.58 C 8.1 km/h
310 05-06-2012 01:45:00 8.8 C 7.49 g/m*3 8.8 C 4.8 km/h
311 05-06-2012 01:50:00 8.8 C 7.49 g/m*3 8.8 C 4.8 km/h
312 05-06-2012 01:55:00 8.8 C 7.49 g/m*3 8.8 C 3.2 km/h
313 05-06-2012 02:00:00 8.8 C 7.49 g/m*3 8.8 C 3.2 km/h
314 05-06-2012 02:05:00 8.9 C 7.53 g/m*3 8.9 C 4.8 km/h
315 05-06-2012 02:10:00 8.9 C 7.53 g/m*3 8.9 C 4.8 km/h
316 05-06-2012 02:15:00 8.9 C 7.45 g/m*3 8.9 C 1.6 km/h
317 05-06-2012 02:20:00 8.8 C 7.4 g/m*3 8.8 C 4.8 km/h
318 05-06-2012 02:25:00 8.8 C 7.49 g/m*3 6.97 C 11.3 km/h
319 05-06-2012 02:30:00 8.8 C 7.49 g/m*3 8.8 C 1.6 km/h
320 05-06-2012 02:35:00 8.8 C 7.49 g/m*3 8.8 C 4.8 km/h
321 05-06-2012 02:40:00 8.9 C 7.45 g/m*3 8.1 C 6.4 km/h
322 05-06-2012 02:45:00 8.9 C 7.53 g/m*3 8.9 C 4.8 km/h
323 05-06-2012 02:50:00 8.9 C 7.45 g/m*3 8.1 C 6.4 km/h
324 05-06-2012 02:55:00 8.9 C 7.45 g/m*3 8.9 C 4.8 km/h
325 05-06-2012 03:00:00 8.9 C 7.45 g/m*3 8.9 C 4.8 km/h
Sensor: Nr:Datum:Temp:Abs-Feuchte:Windchill:Wind:
Aussen-T/F 326 05-06-2012 03:05:00 8.9 C 7.45 g/m*3 8.9 C 4.8 km/h
327 05-06-2012 03:10:00 8.9 C 7.45 g/m*3 8.9 C 4.8 km/h
328 05-06-2012 03:15:00 9 C 7.41 g/m*3 9 C 4.8 km/h
329 05-06-2012 03:20:00 8.9 C 7.45 g/m*3 8.9 C 3.2 km/h
330 05-06-2012 03:25:00 8.9 C 7.45 g/m*3 8.9 C 4.8 km/h
331 05-06-2012 03:30:00 8.9 C 7.36 g/m*3 7.37 C 9.7 km/h
332 05-06-2012 03:35:00 8.9 C 7.36 g/m*3 8.9 C 4.8 km/h
333 05-06-2012 03:40:00 8.9 C 7.45 g/m*3 8.9 C 3.2 km/h
334 05-06-2012 03:45:00 8.8 C 7.4 g/m*3 8.8 C 1.6 km/h
335 05-06-2012 03:50:00 8.8 C 7.4 g/m*3 8.8 C 1.6 km/h
336 05-06-2012 03:55:00 8.7 C 7.35 g/m*3 8.7 C 4.8 km/h
337 05-06-2012 04:00:00 8.7 C 7.35 g/m*3 8.7 C 4.8 km/h
338 05-06-2012 04:05:00 8.7 C 7.35 g/m*3 7.87 C 6.4 km/h
339 05-06-2012 04:10:00 8.8 C 7.4 g/m*3 8.8 C 3.2 km/h
340 05-06-2012 04:15:00 8.8 C 7.4 g/m*3 7.98 C 6.4 km/h
341 05-06-2012 04:20:00 8.8 C 7.4 g/m*3 8.8 C 4.8 km/h
342 05-06-2012 04:25:00 8.8 C 7.4 g/m*3 8.8 C 3.2 km/h
343 05-06-2012 04:30:00 8.8 C 7.4 g/m*3 8.8 C 3.2 km/h
344 05-06-2012 04:35:00 8.8 C 7.4 g/m*3 8.8 C 3.2 km/h
345 05-06-2012 04:40:00 8.8 C 7.4 g/m*3 8.8 C 4.8 km/h
346 05-06-2012 04:45:00 8.8 C 7.4 g/m*3 8.8 C 4.8 km/h
347 05-06-2012 04:50:00 8.8 C 7.4 g/m*3 8.8 C 1.6 km/h
348 05-06-2012 04:55:00 8.7 C 7.35 g/m*3 8.7 C 4.8 km/h
349 05-06-2012 05:00:00 8.7 C 7.35 g/m*3 8.7 C 4.8 km/h
350 05-06-2012 05:05:00 8.7 C 7.35 g/m*3 7.87 C 6.4 km/h
Sensor: Nr:Datum:Temp:Abs-Feuchte:Windchill:Wind:
Aussen-T/F 351 05-06-2012 05:10:00 8.7 C 7.35 g/m*3 8.7 C 4.8 km/h
352 05-06-2012 05:15:00 8.7 C 7.35 g/m*3 8.7 C 1.6 km/h
353 05-06-2012 05:20:00 8.7 C 7.35 g/m*3 8.7 C 3.2 km/h
354 05-06-2012 05:25:00 8.7 C 7.35 g/m*3 8.7 C 1.6 km/h
355 05-06-2012 05:30:00 8.7 C 7.44 g/m*3 8.7 C 3.2 km/h
356 05-06-2012 05:35:00 8.7 C 7.44 g/m*3 8.7 C 1.6 km/h
357 05-06-2012 05:40:00 8.6 C 7.3 g/m*3 8.6 C 1.6 km/h
358 05-06-2012 05:45:00 8.7 C 7.44 g/m*3 8.7 C 3.2 km/h
359 05-06-2012 05:50:00 8.6 C 7.22 g/m*3 8.6 C 4.8 km/h
360 05-06-2012 05:55:00 8.7 C 7.35 g/m*3 8.7 C 1.6 km/h
361 05-06-2012 06:00:00 8.7 C 7.35 g/m*3 8.7 C 3.2 km/h
362 05-06-2012 06:05:00 8.7 C 7.35 g/m*3 8.7 C 1.6 km/h
363 05-06-2012 06:10:00 8.7 C 7.35 g/m*3 8.7 C 3.2 km/h
364 05-06-2012 06:15:00 8.8 C 7.4 g/m*3 8.8 C 1.6 km/h
365 05-06-2012 06:20:00 8.8 C 7.4 g/m*3 8.8 C 3.2 km/h
366 05-06-2012 06:25:00 8.8 C 7.49 g/m*3 8.8 C 1.6 km/h
367 05-06-2012 06:30:00 8.8 C 7.4 g/m*3 8.8 C 3.2 km/h
368 05-06-2012 06:35:00 8.9 C 7.45 g/m*3 8.9 C 3.2 km/h
369 05-06-2012 06:40:00 8.9 C 7.45 g/m*3 8.9 C 4.8 km/h
370 05-06-2012 06:45:00 9 C 7.49 g/m*3 7.49 C 9.7 km/h
371 05-06-2012 06:50:00 8.9 C 7.36 g/m*3 8.9 C 4.8 km/h
372 05-06-2012 06:55:00 8.9 C 7.36 g/m*3 8.1 C 6.4 km/h
373 05-06-2012 07:00:00 8.9 C 7.36 g/m*3 8.9 C 4.8 km/h
374 05-06-2012 07:05:00 8.9 C 7.36 g/m*3 8.9 C 3.2 km/h
375 05-06-2012 07:10:00 8.9 C 7.36 g/m*3 8.9 C 3.2 km/h
Sensor: Nr:Datum:Temp:Abs-Feuchte:Windchill:Wind:
Aussen-T/F 376 05-06-2012 07:15:00 8.9 C 7.36 g/m*3 8.9 C 4.8 km/h
377 05-06-2012 07:20:00 8.8 C 7.22 g/m*3 8.8 C 4.8 km/h
378 05-06-2012 07:25:00 8.8 C 7.31 g/m*3 6.97 C 11.3 km/h
379 05-06-2012 07:30:00 8.7 C 7.26 g/m*3 8.7 C 3.2 km/h
380 05-06-2012 07:35:00 8.7 C 7.35 g/m*3 8.7 C 4.8 km/h
381 05-06-2012 07:40:00 8.6 C 7.3 g/m*3 8.6 C 1.6 km/h
382 05-06-2012 07:45:00 8.6 C 7.22 g/m*3 8.6 C 3.2 km/h
383 05-06-2012 07:50:00 8.6 C 7.39 g/m*3 8.6 C 3.2 km/h
384 05-06-2012 07:55:00 8.5 C 7.26 g/m*3 8.5 C 4.8 km/h
385 05-06-2012 08:00:00 8.4 C 7.3 g/m*3 8.4 C 4.8 km/h
386 05-06-2012 08:05:00 8.5 C 7.26 g/m*3 8.5 C 1.6 km/h
387 05-06-2012 08:10:00 8.6 C 7.3 g/m*3 8.6 C 4.8 km/h
388 05-06-2012 08:15:00 8.7 C 7.26 g/m*3 8.7 C 4.8 km/h
389 05-06-2012 08:20:00 8.8 C 7.22 g/m*3 8.8 C 3.2 km/h
390 05-06-2012 08:25:00 8.8 C 7.31 g/m*3 8.8 C 1.6 km/h
391 05-06-2012 08:30:00 8.9 C 7.36 g/m*3 8.9 C 1.6 km/h
392 05-06-2012 08:35:00 9.1 C 7.28 g/m*3 9.1 C 1.6 km/h
393 05-06-2012 08:40:00 9.5 C 7.46 g/m*3 9.5 C 1.6 km/h
394 05-06-2012 08:45:00 9.9 C 7.47 g/m*3 9.9 C 3.2 km/h
395 05-06-2012 08:50:00 10.2 C 7.61 g/m*3 10.2 C 3.2 km/h
396 05-06-2012 08:55:00 10.6 C 7.61 g/m*3 10.6 C 4.8 km/h
397 05-06-2012 09:00:00 10.9 C 7.66 g/m*3 10.04 C 8.1 km/h
398 05-06-2012 09:05:00 11.1 C 7.66 g/m*3 11.1 C 6.4 km/h
399 05-06-2012 09:10:00 10.9 C 7.46 g/m*3 10.04 C 8.1 km/h
400 05-06-2012 09:15:00 10.8 C 7.51 g/m*3 10.8 C 3.2 km/h
Sensor: Nr:Datum:Temp:Abs-Feuchte:Windchill:Wind:
Aussen-T/F 401 05-06-2012 09:20:00 10.8 C 7.41 g/m*3 10.8 C 4.8 km/h
402 05-06-2012 09:25:00 11.1 C 7.76 g/m*3 11.1 C 3.2 km/h
403 05-06-2012 09:30:00 11.1 C 7.66 g/m*3 11.1 C 4.8 km/h
404 05-06-2012 09:35:00 11.2 C 7.5 g/m*3 11.2 C 8.1 km/h
405 05-06-2012 09:40:00 11.2 C 7.5 g/m*3 11.2 C 3.2 km/h
406 05-06-2012 09:45:00 11.1 C 7.55 g/m*3 11.1 C 4.8 km/h
407 05-06-2012 09:50:00 10.9 C 7.56 g/m*3 10.9 C 3.2 km/h
408 05-06-2012 09:55:00 10.9 C 7.46 g/m*3 10.9 C 4.8 km/h
409 05-06-2012 10:00:00 10.9 C 7.16 g/m*3 10.9 C 4.8 km/h
410 05-06-2012 10:05:00 11.3 C 7.55 g/m*3 11.3 C 4.8 km/h
411 05-06-2012 10:10:00 11.2 C 6.99 g/m*3 11.2 C 4.8 km/h
412 05-06-2012 10:15:00 11.9 C 7.84 g/m*3 11.9 C 3.2 km/h
413 05-06-2012 10:20:00 12.3 C 7.28 g/m*3 12.3 C 4.8 km/h
414 05-06-2012 10:25:00 12.1 C 7.4 g/m*3 12.1 C 3.2 km/h
415 05-06-2012 10:30:00 11.8 C 7.37 g/m*3 11.8 C 6.4 km/h
416 05-06-2012 10:35:00 11.6 C 6.86 g/m*3 11.6 C 6.4 km/h
417 05-06-2012 10:40:00 11.4 C 6.98 g/m*3 11.4 C 3.2 km/h
418 05-06-2012 10:45:00 11.4 C 7.08 g/m*3 11.4 C 4.8 km/h
419 05-06-2012 10:50:00 11.5 C 7.13 g/m*3 11.5 C 3.2 km/h
420 05-06-2012 10:55:00 11.6 C 7.17 g/m*3 11.6 C 6.4 km/h
421 05-06-2012 11:00:00 11.7 C 7.01 g/m*3 11.7 C 3.2 km/h
422 05-06-2012 11:05:00 12.1 C 7.18 g/m*3 12.1 C 3.2 km/h
423 05-06-2012 11:10:00 12.7 C 7.12 g/m*3 12.7 C 3.2 km/h
424 05-06-2012 11:15:00 13.1 C 7.3 g/m*3 13.1 C 4.8 km/h
425 05-06-2012 11:20:00 13.1 C 7.3 g/m*3 13.1 C 8.1 km/h
Sensor: Nr:Datum:Temp:Abs-Feuchte:Windchill:Wind:
Aussen-T/F 426 05-06-2012 11:25:00 12.9 C 6.76 g/m*3 12.9 C 4.8 km/h
427 05-06-2012 11:30:00 13.1 C 7.07 g/m*3 13.1 C 6.4 km/h
428 05-06-2012 11:35:00 13.4 C 7.09 g/m*3 13.4 C 6.4 km/h
429 05-06-2012 11:40:00 13.3 C 6.47 g/m*3 13.3 C 9.7 km/h
430 05-06-2012 11:45:00 14.2 C 6.35 g/m*3 14.2 C 1.6 km/h
431 05-06-2012 11:50:00 13.6 C 6.24 g/m*3 13.6 C 8.1 km/h
432 05-06-2012 11:55:00 13 C 6.35 g/m*3 13 C 6.4 km/h
433 05-06-2012 12:00:00 13 C 6.8 g/m*3 13 C 4.8 km/h
434 05-06-2012 12:05:00 13.8 C 6.55 g/m*3 13.8 C 4.8 km/h
435 05-06-2012 12:10:00 14.6 C 7.26 g/m*3 14.6 C 8.1 km/h
436 05-06-2012 12:15:00 14.1 C 6.43 g/m*3 14.1 C 9.7 km/h
437 05-06-2012 12:20:00 14.1 C 6.43 g/m*3 14.1 C 8.1 km/h
438 05-06-2012 12:25:00 13.7 C 6.16 g/m*3 13.7 C 8.1 km/h
439 05-06-2012 12:30:00 13.3 C 6.47 g/m*3 13.3 C 4.8 km/h
440 05-06-2012 12:35:00 13.3 C 6.24 g/m*3 13.3 C 3.2 km/h
441 05-06-2012 12:40:00 13.6 C 6.59 g/m*3 13.6 C 4.8 km/h
442 05-06-2012 12:45:00 13.7 C 6.28 g/m*3 13.7 C 4.8 km/h
443 05-06-2012 12:50:00 13.9 C 7.07 g/m*3 13.9 C 3.2 km/h
444 05-06-2012 12:55:00 13.9 C 6.71 g/m*3 13.9 C 4.8 km/h
445 05-06-2012 13:00:00 14.2 C 6.84 g/m*3 14.2 C 6.4 km/h
446 05-06-2012 13:05:00 14.1 C 6.31 g/m*3 14.1 C 6.4 km/h
447 05-06-2012 13:10:00 13.7 C 6.04 g/m*3 13.7 C 3.2 km/h
448 05-06-2012 13:15:00 14.1 C 6.67 g/m*3 14.1 C 3.2 km/h
449 05-06-2012 13:20:00 14.2 C 6.47 g/m*3 14.2 C 4.8 km/h
450 05-06-2012 13:25:00 14.2 C 6.11 g/m*3 14.2 C 6.4 km/h
Sensor: Nr:Datum:Temp:Abs-Feuchte:Windchill:Wind:
Aussen-T/F 451 05-06-2012 13:30:00 13.9 C 5.75 g/m*3 13.9 C 6.4 km/h
452 05-06-2012 13:35:00 14.4 C 6.3 g/m*3 14.4 C 8.1 km/h
453 05-06-2012 13:40:00 14.5 C 6.09 g/m*3 14.5 C 6.4 km/h
454 05-06-2012 13:45:00 14.8 C 6.08 g/m*3 14.8 C 9.7 km/h
455 05-06-2012 13:50:00 15 C 6.28 g/m*3 15 C 4.8 km/h
456 05-06-2012 13:55:00 14.7 C 6.04 g/m*3 14.7 C 6.4 km/h
457 05-06-2012 14:00:00 14.6 C 5.88 g/m*3 14.6 C 6.4 km/h
458 05-06-2012 14:05:00 14.9 C 5.61 g/m*3 14.9 C 4.8 km/h
459 05-06-2012 14:10:00 15.4 C 6.31 g/m*3 15.4 C 4.8 km/h
460 05-06-2012 14:15:00 15.7 C 6.69 g/m*3 15.7 C 4.8 km/h
461 05-06-2012 14:20:00 16.2 C 5.93 g/m*3 16.2 C 4.8 km/h
462 05-06-2012 14:25:00 16.3 C 6.1 g/m*3 16.3 C 9.7 km/h
463 05-06-2012 14:30:00 16.2 C 5.93 g/m*3 16.2 C 8.1 km/h
464 05-06-2012 14:35:00 15.8 C 5.79 g/m*3 15.8 C 4.8 km/h
465 05-06-2012 14:40:00 16.8 C 6.43 g/m*3 16.8 C 4.8 km/h
466 05-06-2012 14:45:00 16.4 C 5.86 g/m*3 16.4 C 4.8 km/h
467 05-06-2012 14:50:00 16.8 C 6 g/m*3 16.8 C 3.2 km/h
468 05-06-2012 14:55:00 16.8 C 6.29 g/m*3 16.8 C 8.1 km/h
469 05-06-2012 15:00:00 16.5 C 6.04 g/m*3 16.5 C 8.1 km/h
470 05-06-2012 15:05:00 16.6 C 6.07 g/m*3 16.6 C 4.8 km/h
471 05-06-2012 15:10:00 16.5 C 6.46 g/m*3 16.5 C 6.4 km/h
472 05-06-2012 15:15:00 16.6 C 6.07 g/m*3 16.6 C 8.1 km/h
473 05-06-2012 15:20:00 16.7 C 5.97 g/m*3 16.7 C 6.4 km/h
474 05-06-2012 15:25:00 16.8 C 6.15 g/m*3 16.8 C 4.8 km/h
475 05-06-2012 15:30:00 16.9 C 6.62 g/m*3 16.9 C 4.8 km/h
Sensor: Nr:Datum:Temp:Abs-Feuchte:Windchill:Wind:
Aussen-T/F 476 05-06-2012 15:35:00 16.9 C 6.33 g/m*3 16.9 C 4.8 km/h
477 05-06-2012 15:40:00 16.2 C 6.07 g/m*3 16.2 C 3.2 km/h
478 05-06-2012 15:45:00 15.8 C 5.79 g/m*3 15.8 C 4.8 km/h
479 05-06-2012 15:50:00 15.7 C 6.42 g/m*3 15.7 C 4.8 km/h
480 05-06-2012 15:55:00 16.1 C 6.99 g/m*3 16.1 C 8.1 km/h
481 05-06-2012 16:00:00 15.8 C 6.46 g/m*3 15.8 C 4.8 km/h
482 05-06-2012 16:05:00 15.9 C 6.5 g/m*3 15.9 C 4.8 km/h
483 05-06-2012 16:10:00 16 C 6.54 g/m*3 16 C 3.2 km/h
484 05-06-2012 16:15:00 16.3 C 6.52 g/m*3 16.3 C 3.2 km/h
485 05-06-2012 16:20:00 16.8 C 7.15 g/m*3 16.8 C 6.4 km/h
486 05-06-2012 16:25:00 17.2 C 6.74 g/m*3 17.2 C 6.4 km/h
487 05-06-2012 16:30:00 17.8 C 6.53 g/m*3 17.8 C 4.8 km/h
488 05-06-2012 16:35:00 18.2 C 6.53 g/m*3 18.2 C 4.8 km/h
489 05-06-2012 16:40:00 18.4 C 6.29 g/m*3 18.4 C 4.8 km/h
490 05-06-2012 16:45:00 18.1 C 6.95 g/m*3 18.1 C 3.2 km/h
491 05-06-2012 16:50:00 17.9 C 6.57 g/m*3 17.9 C 8.1 km/h
492 05-06-2012 16:55:00 18.4 C 6.61 g/m*3 18.4 C 6.4 km/h
493 05-06-2012 17:00:00 18.8 C 6.76 g/m*3 18.8 C 3.2 km/h
494 05-06-2012 17:05:00 18.2 C 6.84 g/m*3 18.2 C 8.1 km/h
495 05-06-2012 17:10:00 17.4 C 6.37 g/m*3 17.4 C 6.4 km/h
496 05-06-2012 17:15:00 17.6 C 6.3 g/m*3 17.6 C 6.4 km/h
497 05-06-2012 17:20:00 17.1 C 5.97 g/m*3 17.1 C 8.1 km/h
498 05-06-2012 17:25:00 16.9 C 6.62 g/m*3 16.9 C 6.4 km/h
499 05-06-2012 17:30:00 16.6 C 6.36 g/m*3 16.6 C 4.8 km/h
500 05-06-2012 17:35:00 16.6 C 7.06 g/m*3 16.6 C 4.8 km/h
Sensor: Nr:Datum:Temp:Abs-Feuchte:Windchill:Wind:
Aussen-T/F 501 05-06-2012 17:40:00 16.4 C 6.28 g/m*3 16.4 C 4.8 km/h
502 05-06-2012 17:45:00 16.5 C 6.88 g/m*3 16.5 C 8.1 km/h
503 05-06-2012 17:50:00 16.8 C 6.86 g/m*3 16.8 C 3.2 km/h
504 05-06-2012 17:55:00 16.7 C 6.4 g/m*3 16.7 C 6.4 km/h
505 05-06-2012 18:00:00 17.2 C 6.59 g/m*3 17.2 C 4.8 km/h
506 05-06-2012 18:05:00 17.4 C 6.37 g/m*3 17.4 C 4.8 km/h
507 05-06-2012 18:10:00 17 C 6.95 g/m*3 17 C 6.4 km/h
508 05-06-2012 18:15:00 17 C 6.66 g/m*3 17 C 4.8 km/h
509 05-06-2012 18:20:00 16.9 C 6.76 g/m*3 16.9 C 4.8 km/h
510 05-06-2012 18:25:00 16.7 C 6.96 g/m*3 16.7 C 3.2 km/h
511 05-06-2012 18:30:00 16.7 C 7.25 g/m*3 16.7 C 4.8 km/h
512 05-06-2012 18:35:00 17.4 C 7.26 g/m*3 17.4 C 4.8 km/h
513 05-06-2012 18:40:00 18 C 7.07 g/m*3 18 C 4.8 km/h
514 05-06-2012 18:45:00 18.1 C 7.73 g/m*3 18.1 C 11.3 km/h
515 05-06-2012 18:50:00 18.1 C 6.95 g/m*3 18.1 C 4.8 km/h
516 05-06-2012 18:55:00 17.7 C 7.24 g/m*3 17.7 C 4.8 km/h
517 05-06-2012 19:00:00 17.4 C 6.97 g/m*3 17.4 C 3.2 km/h
518 05-06-2012 19:05:00 17.4 C 8 g/m*3 17.4 C 3.2 km/h
519 05-06-2012 19:10:00 17.2 C 7.18 g/m*3 17.2 C 3.2 km/h
520 05-06-2012 19:15:00 16.7 C 7.82 g/m*3 16.7 C 3.2 km/h
521 05-06-2012 19:20:00 16.2 C 8 g/m*3 16.2 C 1.6 km/h
522 05-06-2012 19:25:00 15.7 C 8.3 g/m*3 15.7 C 3.2 km/h
523 05-06-2012 19:30:00 15.3 C 8.36 g/m*3 15.3 C 0 km/h
524 05-06-2012 19:35:00 15 C 8.98 g/m*3 15 C 1.6 km/h
525 05-06-2012 19:40:00 14.8 C 9.12 g/m*3 14.8 C 1.6 km/h
Sensor: Nr:Datum:Temp:Abs-Feuchte:Windchill:Wind:
Aussen-T/F 526 05-06-2012 19:45:00 14.7 C 9.07 g/m*3 14.7 C 0 km/h
527 05-06-2012 19:50:00 14.5 C 8.83 g/m*3 14.5 C 1.6 km/h
528 05-06-2012 19:55:00 14.5 C 8.33 g/m*3 14.5 C 3.2 km/h
529 05-06-2012 20:00:00 14.7 C 8.56 g/m*3 14.7 C 1.6 km/h
530 05-06-2012 20:05:00 15 C 7.82 g/m*3 15 C 1.6 km/h
531 05-06-2012 20:10:00 15.4 C 7.36 g/m*3 15.4 C 4.8 km/h
532 05-06-2012 20:15:00 15.6 C 8.38 g/m*3 15.6 C 3.2 km/h
533 05-06-2012 20:20:00 15.3 C 8.75 g/m*3 15.3 C 0 km/h
534 05-06-2012 20:25:00 15.1 C 7.22 g/m*3 15.1 C 4.8 km/h
535 05-06-2012 20:30:00 15.1 C 8.39 g/m*3 15.1 C 3.2 km/h
536 05-06-2012 20:35:00 14.9 C 7.39 g/m*3 14.9 C 4.8 km/h
537 05-06-2012 20:40:00 14.6 C 7.38 g/m*3 14.6 C 3.2 km/h
538 05-06-2012 20:45:00 14.4 C 8.41 g/m*3 14.4 C 3.2 km/h
539 05-06-2012 20:50:00 14.1 C 7.65 g/m*3 14.1 C 3.2 km/h
540 05-06-2012 20:55:00 13.9 C 8.15 g/m*3 13.9 C 3.2 km/h
541 05-06-2012 21:00:00 13.5 C 8.19 g/m*3 13.5 C 3.2 km/h
542 05-06-2012 21:05:00 13.2 C 8.38 g/m*3 13.2 C 1.6 km/h
543 05-06-2012 21:10:00 12.8 C 8.29 g/m*3 12.8 C 3.2 km/h
544 05-06-2012 21:15:00 12.6 C 8.3 g/m*3 12.6 C 3.2 km/h
545 05-06-2012 21:20:00 12.3 C 8.14 g/m*3 12.3 C 3.2 km/h
546 05-06-2012 21:25:00 12.1 C 8.15 g/m*3 12.1 C 3.2 km/h
547 05-06-2012 21:30:00 11.9 C 7.94 g/m*3 11.9 C 3.2 km/h
548 05-06-2012 21:35:00 11.7 C 7.95 g/m*3 11.7 C 3.2 km/h
549 05-06-2012 21:40:00 11.6 C 7.9 g/m*3 11.6 C 3.2 km/h
550 05-06-2012 21:45:00 11.4 C 8.01 g/m*3 11.4 C 3.2 km/h
Sensor: Nr:Datum:Temp:Abs-Feuchte:Windchill:Wind:
Aussen-T/F 551 05-06-2012 21:50:00 11.3 C 7.96 g/m*3 11.3 C 3.2 km/h
552 05-06-2012 21:55:00 11.2 C 7.8 g/m*3 11.2 C 3.2 km/h
553 05-06-2012 22:00:00 11.1 C 7.76 g/m*3 11.1 C 3.2 km/h
554 05-06-2012 22:05:00 11 C 7.71 g/m*3 11 C 3.2 km/h
555 05-06-2012 22:10:00 10.9 C 7.66 g/m*3 10.9 C 3.2 km/h
556 05-06-2012 22:15:00 10.7 C 7.66 g/m*3 10.7 C 3.2 km/h
557 05-06-2012 22:20:00 10.7 C 7.66 g/m*3 10.7 C 4.8 km/h
558 05-06-2012 22:25:00 10.6 C 7.61 g/m*3 10.6 C 3.2 km/h
559 05-06-2012 22:30:00 10.5 C 7.66 g/m*3 10.5 C 3.2 km/h
560 05-06-2012 22:35:00 10.4 C 7.61 g/m*3 10.4 C 3.2 km/h
561 05-06-2012 22:40:00 10.4 C 7.61 g/m*3 10.4 C 3.2 km/h
562 05-06-2012 22:45:00 10.4 C 7.61 g/m*3 10.4 C 3.2 km/h
563 05-06-2012 22:50:00 10.4 C 7.61 g/m*3 10.4 C 3.2 km/h
564 05-06-2012 22:55:00 10.5 C 7.66 g/m*3 10.5 C 3.2 km/h
565 05-06-2012 23:00:00 10.7 C 7.66 g/m*3 10.7 C 3.2 km/h
566 05-06-2012 23:05:00 10.8 C 7.81 g/m*3 10.8 C 1.6 km/h
567 05-06-2012 23:10:00 10.9 C 7.66 g/m*3 10.9 C 3.2 km/h
568 05-06-2012 23:15:00 10.9 C 7.56 g/m*3 10.9 C 1.6 km/h
569 05-06-2012 23:20:00 10.9 C 7.76 g/m*3 10.9 C 3.2 km/h
570 05-06-2012 23:25:00 10.8 C 7.51 g/m*3 10.8 C 3.2 km/h
571 05-06-2012 23:30:00 10.9 C 7.56 g/m*3 10.9 C 1.6 km/h
572 05-06-2012 23:35:00 11.1 C 7.45 g/m*3 11.1 C 4.8 km/h
573 05-06-2012 23:40:00 11.2 C 7.4 g/m*3 11.2 C 4.8 km/h
574 05-06-2012 23:45:00 11.2 C 7.8 g/m*3 11.2 C 1.6 km/h
575 05-06-2012 23:50:00 11.2 C 7.6 g/m*3 11.2 C 3.2 km/h
Sensor: Nr:Datum:Temp:Abs-Feuchte:Windchill:Wind:
Aussen-T/F 576 05-06-2012 23:55:00 11.1 C 7.05 g/m*3 11.1 C 3.2 km/h
577 06-06-2012 00:00:00 11.1 C 7.66 g/m*3 11.1 C 3.2 km/h
578 06-06-2012 00:05:00 10.9 C 7.46 g/m*3 10.9 C 4.8 km/h
579 06-06-2012 00:10:00 10.8 C 7.51 g/m*3 10.8 C 4.8 km/h
580 06-06-2012 00:15:00 10.7 C 7.66 g/m*3 10.7 C 3.2 km/h
581 06-06-2012 00:20:00 10.6 C 7.52 g/m*3 10.6 C 3.2 km/h
582 06-06-2012 00:25:00 10.6 C 7.32 g/m*3 10.6 C 3.2 km/h
583 06-06-2012 00:30:00 10.8 C 7.02 g/m*3 10.8 C 4.8 km/h
584 06-06-2012 00:35:00 11.1 C 7.15 g/m*3 11.1 C 3.2 km/h
585 06-06-2012 00:40:00 11.1 C 7.55 g/m*3 11.1 C 3.2 km/h
586 06-06-2012 00:45:00 11.1 C 7.55 g/m*3 11.1 C 1.6 km/h
587 06-06-2012 00:50:00 10.9 C 7.46 g/m*3 10.9 C 3.2 km/h
588 06-06-2012 00:55:00 10.8 C 7.41 g/m*3 10.8 C 3.2 km/h
589 06-06-2012 01:00:00 10.7 C 7.56 g/m*3 10.7 C 3.2 km/h
590 06-06-2012 01:05:00 10.6 C 7.03 g/m*3 10.6 C 3.2 km/h
591 06-06-2012 01:10:00 10.7 C 7.56 g/m*3 10.7 C 4.8 km/h
592 06-06-2012 01:15:00 10.7 C 7.37 g/m*3 10.7 C 3.2 km/h
593 06-06-2012 01:20:00 10.8 C 7.51 g/m*3 10.8 C 3.2 km/h
594 06-06-2012 01:25:00 10.8 C 7.51 g/m*3 10.8 C 1.6 km/h
595 06-06-2012 01:30:00 10.9 C 6.96 g/m*3 10.9 C 3.2 km/h
596 06-06-2012 01:35:00 11.1 C 7.25 g/m*3 11.1 C 3.2 km/h
597 06-06-2012 01:40:00 11.1 C 7.05 g/m*3 11.1 C 3.2 km/h
598 06-06-2012 01:45:00 11.3 C 7.45 g/m*3 11.3 C 4.8 km/h
599 06-06-2012 01:50:00 11.3 C 7.55 g/m*3 11.3 C 1.6 km/h
600 06-06-2012 01:55:00 11.1 C 7.35 g/m*3 11.1 C 3.2 km/h
Sensor: Nr:Datum:Temp:Abs-Feuchte:Windchill:Wind:
Aussen-T/F 601 06-06-2012 02:00:00 11.1 C 7.45 g/m*3 11.1 C 3.2 km/h
602 06-06-2012 02:05:00 11.1 C 7.55 g/m*3 11.1 C 3.2 km/h
603 06-06-2012 02:10:00 11 C 7.01 g/m*3 11 C 1.6 km/h
604 06-06-2012 02:15:00 11.1 C 6.95 g/m*3 11.1 C 4.8 km/h
605 06-06-2012 02:20:00 11.3 C 7.45 g/m*3 11.3 C 3.2 km/h
606 06-06-2012 02:25:00 11.5 C 7.23 g/m*3 11.5 C 8.1 km/h
607 06-06-2012 02:30:00 11.4 C 7.29 g/m*3 11.4 C 1.6 km/h
608 06-06-2012 02:35:00 11.4 C 6.98 g/m*3 11.4 C 3.2 km/h
609 06-06-2012 02:40:00 11.6 C 6.96 g/m*3 11.6 C 4.8 km/h
610 06-06-2012 02:45:00 11.6 C 7.38 g/m*3 11.6 C 3.2 km/h
611 06-06-2012 02:50:00 11.6 C 7.48 g/m*3 11.6 C 1.6 km/h
612 06-06-2012 02:55:00 11.4 C 7.39 g/m*3 11.4 C 1.6 km/h
613 06-06-2012 03:00:00 11.5 C 7.13 g/m*3 11.5 C 1.6 km/h
614 06-06-2012 03:05:00 11.6 C 6.96 g/m*3 11.6 C 4.8 km/h
615 06-06-2012 03:10:00 11.8 C 6.95 g/m*3 11.8 C 3.2 km/h
616 06-06-2012 03:15:00 11.9 C 6.99 g/m*3 11.9 C 3.2 km/h
617 06-06-2012 03:20:00 11.9 C 6.99 g/m*3 11.9 C 3.2 km/h
618 06-06-2012 03:25:00 11.9 C 7.2 g/m*3 11.9 C 3.2 km/h
619 06-06-2012 03:30:00 11.8 C 7.37 g/m*3 11.8 C 3.2 km/h
620 06-06-2012 03:35:00 11.7 C 7.01 g/m*3 11.7 C 4.8 km/h
621 06-06-2012 03:40:00 11.8 C 7.16 g/m*3 11.8 C 4.8 km/h
622 06-06-2012 03:45:00 11.8 C 7.05 g/m*3 11.8 C 8.1 km/h
623 06-06-2012 03:50:00 11.8 C 7.05 g/m*3 11.8 C 4.8 km/h
624 06-06-2012 03:55:00 11.8 C 7.26 g/m*3 11.8 C 3.2 km/h
625 06-06-2012 04:00:00 11.7 C 7.43 g/m*3 11.7 C 1.6 km/h
Sensor: Nr:Datum:Temp:Abs-Feuchte:Windchill:Wind:
Aussen-T/F 626 06-06-2012 04:05:00 11.6 C 7.69 g/m*3 11.6 C 1.6 km/h
627 06-06-2012 04:10:00 11.5 C 7.75 g/m*3 11.5 C 1.6 km/h
628 06-06-2012 04:15:00 11.4 C 7.39 g/m*3 11.4 C 3.2 km/h
629 06-06-2012 04:20:00 11.4 C 7.8 g/m*3 11.4 C 1.6 km/h
630 06-06-2012 04:25:00 11.2 C 7.91 g/m*3 11.2 C 3.2 km/h
631 06-06-2012 04:30:00 11.1 C 8.06 g/m*3 11.1 C 3.2 km/h
632 06-06-2012 04:35:00 10.9 C 7.76 g/m*3 10.9 C 1.6 km/h
633 06-06-2012 04:40:00 10.8 C 7.91 g/m*3 10.8 C 3.2 km/h
634 06-06-2012 04:45:00 10.8 C 8.2 g/m*3 10.8 C 0 km/h
635 06-06-2012 04:50:00 10.7 C 8.05 g/m*3 10.7 C 3.2 km/h
636 06-06-2012 04:55:00 10.6 C 8.1 g/m*3 10.6 C 1.6 km/h
637 06-06-2012 05:00:00 10.4 C 8.19 g/m*3 10.4 C 0 km/h
638 06-06-2012 05:05:00 10.3 C 8.24 g/m*3 10.3 C 1.6 km/h
639 06-06-2012 05:10:00 10.2 C 8.28 g/m*3 10.2 C 0 km/h
640 06-06-2012 05:15:00 10.1 C 8.23 g/m*3 10.1 C 0 km/h
641 06-06-2012 05:20:00 10 C 8.27 g/m*3 10 C 1.6 km/h
642 06-06-2012 05:25:00 9.9 C 8.31 g/m*3 9.9 C 0 km/h
643 06-06-2012 05:30:00 9.8 C 8.35 g/m*3 9.8 C 1.6 km/h
644 06-06-2012 05:35:00 9.7 C 8.3 g/m*3 9.7 C 1.6 km/h
645 06-06-2012 05:40:00 9.7 C 8.39 g/m*3 9.7 C 0 km/h
646 06-06-2012 05:45:00 9.6 C 8.34 g/m*3 9.6 C 0 km/h
647 06-06-2012 05:50:00 9.6 C 8.43 g/m*3 9.6 C 0 km/h
648 06-06-2012 05:55:00 9.6 C 8.43 g/m*3 9.6 C 0 km/h
649 06-06-2012 06:00:00 9.6 C 8.43 g/m*3 9.6 C 0 km/h
650 06-06-2012 06:05:00 9.5 C 8.37 g/m*3 9.5 C 0 km/h
Sensor: Nr:Datum:Temp:Abs-Feuchte:Windchill:Wind:
Aussen-T/F 651 06-06-2012 06:10:00 9.5 C 8.47 g/m*3 9.5 C 0 km/h
652 06-06-2012 06:15:00 9.5 C 8.47 g/m*3 9.5 C 0 km/h
653 06-06-2012 06:20:00 9.6 C 8.52 g/m*3 9.6 C 0 km/h
654 06-06-2012 06:25:00 9.6 C 8.52 g/m*3 9.6 C 0 km/h
655 06-06-2012 06:30:00 9.7 C 8.57 g/m*3 9.7 C 0 km/h
656 06-06-2012 06:35:00 9.7 C 8.57 g/m*3 9.7 C 0 km/h
657 06-06-2012 06:40:00 9.8 C 8.63 g/m*3 9.8 C 0 km/h
658 06-06-2012 06:45:00 9.8 C 8.72 g/m*3 9.8 C 0 km/h
659 06-06-2012 06:50:00 9.9 C 8.78 g/m*3 9.9 C 0 km/h
660 06-06-2012 06:55:00 9.9 C 8.78 g/m*3 9.9 C 0 km/h
661 06-06-2012 07:00:00 10 C 8.83 g/m*3 10 C 0 km/h
662 06-06-2012 07:05:00 10 C 8.83 g/m*3 10 C 0 km/h
663 06-06-2012 07:10:00 10 C 8.83 g/m*3 10 C 0 km/h
664 06-06-2012 07:15:00 10 C 8.74 g/m*3 10 C 0 km/h
665 06-06-2012 07:20:00 10.1 C 8.79 g/m*3 10.1 C 1.6 km/h
666 06-06-2012 07:25:00 10.2 C 8.85 g/m*3 10.2 C 1.6 km/h
667 06-06-2012 07:30:00 10.2 C 8.76 g/m*3 10.2 C 1.6 km/h
668 06-06-2012 07:35:00 10.4 C 8.77 g/m*3 10.4 C 1.6 km/h
669 06-06-2012 07:40:00 10.5 C 8.83 g/m*3 10.5 C 0 km/h
670 06-06-2012 07:45:00 10.6 C 8.78 g/m*3 10.6 C 1.6 km/h
671 06-06-2012 07:50:00 10.8 C 8.99 g/m*3 10.8 C 1.6 km/h
672 06-06-2012 07:55:00 10.9 C 9.05 g/m*3 10.9 C 1.6 km/h
673 06-06-2012 08:00:00 10.9 C 9.05 g/m*3 10.9 C 0 km/h
674 06-06-2012 08:05:00 11 C 9.11 g/m*3 11 C 0 km/h
675 06-06-2012 08:10:00 11.1 C 9.17 g/m*3 11.1 C 0 km/h
Sensor: Nr:Datum:Temp:Abs-Feuchte:Windchill:Wind:
Aussen-T/F 676 06-06-2012 08:15:00 11.2 C 9.22 g/m*3 11.2 C 0 km/h
677 06-06-2012 08:20:00 11.2 C 9.02 g/m*3 11.2 C 0 km/h
678 06-06-2012 08:25:00 11.3 C 9.08 g/m*3 11.3 C 0 km/h
679 06-06-2012 08:30:00 11.3 C 9.08 g/m*3 11.3 C 1.6 km/h
680 06-06-2012 08:35:00 11.4 C 9.14 g/m*3 11.4 C 1.6 km/h
681 06-06-2012 08:40:00 11.4 C 9.14 g/m*3 11.4 C 0 km/h
682 06-06-2012 08:45:00 11.6 C 9.15 g/m*3 11.6 C 1.6 km/h
683 06-06-2012 08:50:00 11.6 C 9.15 g/m*3 11.6 C 3.2 km/h
684 06-06-2012 08:55:00 11.7 C 9.2 g/m*3 11.7 C 1.6 km/h
685 06-06-2012 09:00:00 11.7 C 9.2 g/m*3 11.7 C 6.4 km/h
686 06-06-2012 09:05:00 11.7 C 9.2 g/m*3 11.7 C 3.2 km/h
687 06-06-2012 09:10:00 11.7 C 9.2 g/m*3 11.7 C 0 km/h
688 06-06-2012 09:15:00 11.6 C 9.25 g/m*3 11.6 C 3.2 km/h
689 06-06-2012 09:20:00 11.4 C 9.14 g/m*3 11.4 C 3.2 km/h
690 06-06-2012 09:25:00 11.3 C 9.28 g/m*3 11.3 C 1.6 km/h
691 06-06-2012 09:30:00 11.2 C 9.22 g/m*3 11.2 C 1.6 km/h
692 06-06-2012 09:35:00 11.2 C 9.22 g/m*3 11.2 C 1.6 km/h
693 06-06-2012 09:40:00 11.2 C 9.33 g/m*3 11.2 C 0 km/h
694 06-06-2012 09:45:00 11.2 C 9.33 g/m*3 11.2 C 0 km/h
695 06-06-2012 09:50:00 11.2 C 9.43 g/m*3 11.2 C 0 km/h
696 06-06-2012 09:55:00 11.2 C 9.43 g/m*3 11.2 C 1.6 km/h
697 06-06-2012 10:00:00 11.2 C 9.43 g/m*3 11.2 C 1.6 km/h
698 06-06-2012 10:05:00 11.2 C 9.43 g/m*3 11.2 C 1.6 km/h
699 06-06-2012 10:10:00 11.2 C 9.22 g/m*3 11.2 C 0 km/h
700 06-06-2012 10:15:00 11.2 C 9.22 g/m*3 11.2 C 1.6 km/h
Sensor: Nr:Datum:Temp:Abs-Feuchte:Windchill:Wind:
Aussen-T/F 701 06-06-2012 10:20:00 11.3 C 9.49 g/m*3 11.3 C 0 km/h
702 06-06-2012 10:25:00 11.3 C 9.38 g/m*3 11.3 C 0 km/h
703 06-06-2012 10:30:00 11.3 C 9.38 g/m*3 11.3 C 4.8 km/h
704 06-06-2012 10:35:00 11.4 C 9.44 g/m*3 11.4 C 1.6 km/h
705 06-06-2012 10:40:00 11.4 C 9.55 g/m*3 11.4 C 3.2 km/h
706 06-06-2012 10:45:00 11.4 C 9.55 g/m*3 11.4 C 3.2 km/h
707 06-06-2012 10:50:00 11.4 C 9.44 g/m*3 11.4 C 3.2 km/h
708 06-06-2012 10:55:00 11.3 C 9.38 g/m*3 11.3 C 3.2 km/h
709 06-06-2012 11:00:00 11.3 C 9.49 g/m*3 11.3 C 0 km/h
710 06-06-2012 11:05:00 11.4 C 9.55 g/m*3 11.4 C 1.6 km/h
711 06-06-2012 11:10:00 11.4 C 9.65 g/m*3 11.4 C 0 km/h
712 06-06-2012 11:15:00 11.4 C 9.55 g/m*3 11.4 C 0 km/h
713 06-06-2012 11:20:00 11.5 C 9.61 g/m*3 11.5 C 0 km/h
714 06-06-2012 11:25:00 11.6 C 9.67 g/m*3 11.6 C 0 km/h
715 06-06-2012 11:30:00 11.9 C 9.96 g/m*3 11.9 C 1.6 km/h
716 06-06-2012 11:35:00 12.2 C 10.14 g/m*3 12.2 C 1.6 km/h
717 06-06-2012 11:40:00 12.2 C 10.04 g/m*3 12.2 C 1.6 km/h
718 06-06-2012 11:45:00 12.2 C 10.04 g/m*3 12.2 C 1.6 km/h
719 06-06-2012 11:50:00 12.3 C 10.1 g/m*3 12.3 C 1.6 km/h
720 06-06-2012 11:55:00 12.2 C 9.93 g/m*3 12.2 C 3.2 km/h
721 06-06-2012 12:00:00 12.2 C 10.04 g/m*3 12.2 C 1.6 km/h
722 06-06-2012 12:05:00 12.1 C 9.87 g/m*3 12.1 C 3.2 km/h
723 06-06-2012 12:10:00 12.1 C 9.87 g/m*3 12.1 C 1.6 km/h
724 06-06-2012 12:15:00 12.1 C 9.97 g/m*3 12.1 C 1.6 km/h
725 06-06-2012 12:20:00 12.1 C 9.97 g/m*3 12.1 C 1.6 km/h
Sensor: Nr:Datum:Temp:Abs-Feuchte:Windchill:Wind:
Aussen-T/F 726 06-06-2012 12:25:00 12.2 C 10.14 g/m*3 12.2 C 1.6 km/h
727 06-06-2012 12:30:00 12.4 C 10.38 g/m*3 12.4 C 3.2 km/h
728 06-06-2012 12:35:00 12.5 C 10.44 g/m*3 12.5 C 1.6 km/h
729 06-06-2012 12:40:00 12.7 C 10.46 g/m*3 12.7 C 3.2 km/h
730 06-06-2012 12:45:00 12.8 C 10.53 g/m*3 12.8 C 3.2 km/h
731 06-06-2012 12:50:00 13 C 10.66 g/m*3 13 C 1.6 km/h
732 06-06-2012 12:55:00 13.2 C 10.79 g/m*3 13.2 C 0 km/h
733 06-06-2012 13:00:00 13.4 C 10.93 g/m*3 13.4 C 1.6 km/h
734 06-06-2012 13:05:00 13.6 C 11.06 g/m*3 13.6 C 1.6 km/h
735 06-06-2012 13:10:00 13.8 C 11.2 g/m*3 13.8 C 3.2 km/h
736 06-06-2012 13:15:00 14.2 C 11.48 g/m*3 14.2 C 1.6 km/h
737 06-06-2012 13:20:00 14.7 C 11.46 g/m*3 14.7 C 9.7 km/h
738 06-06-2012 13:25:00 15.5 C 11.76 g/m*3 15.5 C 12.9 km/h
739 06-06-2012 13:30:00 15.7 C 11.64 g/m*3 15.7 C 12.9 km/h
740 06-06-2012 13:35:00 15.8 C 11.71 g/m*3 15.8 C 11.3 km/h
741 06-06-2012 13:40:00 16.2 C 12.14 g/m*3 16.2 C 9.7 km/h
742 06-06-2012 13:45:00 16.6 C 12.01 g/m*3 16.6 C 11.3 km/h
743 06-06-2012 13:50:00 16.8 C 12.01 g/m*3 16.8 C 9.7 km/h
744 06-06-2012 13:55:00 17.2 C 12.3 g/m*3 17.2 C 8.1 km/h
745 06-06-2012 14:00:00 17.6 C 12.45 g/m*3 17.6 C 9.7 km/h
746 06-06-2012 14:05:00 17.7 C 12.22 g/m*3 17.7 C 11.3 km/h
747 06-06-2012 14:10:00 18 C 12.9 g/m*3 18 C 14.5 km/h
748 06-06-2012 14:15:00 17.8 C 11.84 g/m*3 17.8 C 11.3 km/h
749 06-06-2012 14:20:00 18.2 C 12.28 g/m*3 18.2 C 9.7 km/h
750 06-06-2012 14:25:00 18.2 C 12.28 g/m*3 18.2 C 11.3 km/h
Sensor: Nr:Datum:Temp:Abs-Feuchte:Windchill:Wind:
Aussen-T/F 751 06-06-2012 14:30:00 18.3 C 11.88 g/m*3 18.3 C 12.9 km/h
752 06-06-2012 14:35:00 18.3 C 11.88 g/m*3 18.3 C 16.1 km/h
753 06-06-2012 14:40:00 18.4 C 12.11 g/m*3 18.4 C 12.9 km/h
754 06-06-2012 14:45:00 18.3 C 11.88 g/m*3 18.3 C 11.3 km/h
755 06-06-2012 14:50:00 18.7 C 12.33 g/m*3 18.7 C 9.7 km/h
756 06-06-2012 14:55:00 19.1 C 12.29 g/m*3 19.1 C 8.1 km/h
757 06-06-2012 15:00:00 18.9 C 11.83 g/m*3 18.9 C 12.9 km/h
758 06-06-2012 15:05:00 18.9 C 11.83 g/m*3 18.9 C 12.9 km/h
759 06-06-2012 15:10:00 18.9 C 11.99 g/m*3 18.9 C 8.1 km/h
760 06-06-2012 15:15:00 18.8 C 11.76 g/m*3 18.8 C 6.4 km/h
761 06-06-2012 15:20:00 18.6 C 11.62 g/m*3 18.6 C 11.3 km/h
762 06-06-2012 15:25:00 18.2 C 11.66 g/m*3 18.2 C 14.5 km/h
763 06-06-2012 15:30:00 18.4 C 11.64 g/m*3 18.4 C 9.7 km/h
764 06-06-2012 15:35:00 18.6 C 11.62 g/m*3 18.6 C 8.1 km/h
765 06-06-2012 15:40:00 18.7 C 12.01 g/m*3 18.7 C 8.1 km/h
766 06-06-2012 15:45:00 18.6 C 11.78 g/m*3 18.6 C 8.1 km/h
767 06-06-2012 15:50:00 18.5 C 11.71 g/m*3 18.5 C 9.7 km/h
768 06-06-2012 15:55:00 18.4 C 11.95 g/m*3 18.4 C 6.4 km/h
769 06-06-2012 16:00:00 18.2 C 12.43 g/m*3 18.2 C 3.2 km/h
770 06-06-2012 16:05:00 17.9 C 12.52 g/m*3 17.9 C 1.6 km/h
771 06-06-2012 16:10:00 17.4 C 12.15 g/m*3 17.4 C 8.1 km/h
772 06-06-2012 16:15:00 16.9 C 11.94 g/m*3 16.9 C 12.9 km/h
773 06-06-2012 16:20:00 16.2 C 11.86 g/m*3 16.2 C 11.3 km/h
774 06-06-2012 16:25:00 15.5 C 11.76 g/m*3 15.5 C 9.7 km/h
775 06-06-2012 16:30:00 15.7 C 12.18 g/m*3 15.7 C 4.8 km/h
Sensor: Nr:Datum:Temp:Abs-Feuchte:Windchill:Wind:
Aussen-T/F 776 06-06-2012 16:35:00 15.8 C 12.38 g/m*3 15.8 C 4.8 km/h
777 06-06-2012 16:40:00 16.1 C 12.61 g/m*3 16.1 C 3.2 km/h
778 06-06-2012 16:45:00 16.2 C 12.55 g/m*3 16.2 C 4.8 km/h
779 06-06-2012 16:50:00 17.1 C 13.54 g/m*3 17.1 C 4.8 km/h
780 06-06-2012 16:55:00 16.9 C 12.8 g/m*3 16.9 C 6.4 km/h
781 06-06-2012 17:00:00 16.6 C 12.86 g/m*3 16.6 C 3.2 km/h
782 06-06-2012 17:05:00 16.4 C 12.84 g/m*3 16.4 C 3.2 km/h
783 06-06-2012 17:10:00 16.2 C 12.55 g/m*3 16.2 C 4.8 km/h
784 06-06-2012 17:15:00 16 C 12.13 g/m*3 16 C 6.4 km/h
785 06-06-2012 17:20:00 15.9 C 12.19 g/m*3 15.9 C 4.8 km/h
786 06-06-2012 17:25:00 15.7 C 12.18 g/m*3 15.7 C 6.4 km/h
787 06-06-2012 17:30:00 15.8 C 12.52 g/m*3 15.8 C 4.8 km/h
788 06-06-2012 17:35:00 15.8 C 12.52 g/m*3 15.8 C 3.2 km/h
789 06-06-2012 17:40:00 16 C 12.67 g/m*3 16 C 4.8 km/h
790 06-06-2012 17:45:00 16.1 C 12.61 g/m*3 16.1 C 4.8 km/h
791 06-06-2012 17:50:00 16.2 C 12.96 g/m*3 16.2 C 3.2 km/h
792 06-06-2012 17:55:00 16.3 C 12.9 g/m*3 16.3 C 6.4 km/h
793 06-06-2012 18:00:00 16.2 C 12.82 g/m*3 16.2 C 3.2 km/h
794 06-06-2012 18:05:00 16.1 C 12.75 g/m*3 16.1 C 3.2 km/h
795 06-06-2012 18:10:00 15.9 C 12.59 g/m*3 15.9 C 1.6 km/h
796 06-06-2012 18:15:00 15.8 C 12.52 g/m*3 15.8 C 3.2 km/h
797 06-06-2012 18:20:00 15.7 C 12.58 g/m*3 15.7 C 3.2 km/h
798 06-06-2012 18:25:00 15.7 C 12.04 g/m*3 15.7 C 6.4 km/h
799 06-06-2012 18:30:00 15.6 C 11.84 g/m*3 15.6 C 6.4 km/h
800 06-06-2012 18:35:00 15.4 C 11.56 g/m*3 15.4 C 4.8 km/h
Sensor: Nr:Datum:Temp:Abs-Feuchte:Windchill:Wind:
Aussen-T/F 801 06-06-2012 18:40:00 15.3 C 11.62 g/m*3 15.3 C 6.4 km/h
802 06-06-2012 18:45:00 15.2 C 11.68 g/m*3 15.2 C 6.4 km/h
803 06-06-2012 18:50:00 15.2 C 11.68 g/m*3 15.2 C 8.1 km/h
804 06-06-2012 18:55:00 15.1 C 11.61 g/m*3 15.1 C 6.4 km/h
805 06-06-2012 19:00:00 15.1 C 11.61 g/m*3 15.1 C 6.4 km/h
806 06-06-2012 19:05:00 15.1 C 11.74 g/m*3 15.1 C 9.7 km/h
807 06-06-2012 19:10:00 15 C 11.54 g/m*3 15 C 9.7 km/h
808 06-06-2012 19:15:00 15.1 C 11.61 g/m*3 15.1 C 9.7 km/h
809 06-06-2012 19:20:00 15.1 C 11.61 g/m*3 15.1 C 6.4 km/h
810 06-06-2012 19:25:00 15.2 C 11.94 g/m*3 15.2 C 4.8 km/h
811 06-06-2012 19:30:00 15.2 C 11.94 g/m*3 15.2 C 6.4 km/h
812 06-06-2012 19:35:00 15.1 C 12 g/m*3 15.1 C 1.6 km/h
813 06-06-2012 19:40:00 15.1 C 12 g/m*3 15.1 C 3.2 km/h
814 06-06-2012 19:45:00 15.1 C 12 g/m*3 15.1 C 3.2 km/h
815 06-06-2012 19:50:00 15.1 C 12.13 g/m*3 15.1 C 1.6 km/h
816 06-06-2012 19:55:00 15 C 12.05 g/m*3 15 C 3.2 km/h
817 06-06-2012 20:00:00 14.9 C 11.98 g/m*3 14.9 C 0 km/h
818 06-06-2012 20:05:00 14.8 C 11.91 g/m*3 14.8 C 0 km/h
819 06-06-2012 20:10:00 14.7 C 11.83 g/m*3 14.7 C 0 km/h
820 06-06-2012 20:15:00 14.7 C 11.83 g/m*3 14.7 C 1.6 km/h
821 06-06-2012 20:20:00 14.6 C 11.76 g/m*3 14.6 C 3.2 km/h
822 06-06-2012 20:25:00 14.4 C 11.74 g/m*3 14.4 C 3.2 km/h
823 06-06-2012 20:30:00 14.3 C 11.67 g/m*3 14.3 C 3.2 km/h
824 06-06-2012 20:35:00 14.3 C 11.67 g/m*3 14.3 C 3.2 km/h
825 06-06-2012 20:40:00 14.2 C 11.6 g/m*3 14.2 C 3.2 km/h
Sensor: Nr:Datum:Temp:Abs-Feuchte:Windchill:Wind:
Aussen-T/F 826 06-06-2012 20:45:00 14.2 C 11.6 g/m*3 14.2 C 0 km/h
827 06-06-2012 20:50:00 14.2 C 11.6 g/m*3 14.2 C 1.6 km/h
828 06-06-2012 20:55:00 14.2 C 11.6 g/m*3 14.2 C 1.6 km/h
829 06-06-2012 21:00:00 14.3 C 11.79 g/m*3 14.3 C 0 km/h
830 06-06-2012 21:05:00 14.3 C 11.79 g/m*3 14.3 C 1.6 km/h
831 06-06-2012 21:10:00 14.3 C 11.79 g/m*3 14.3 C 1.6 km/h
832 06-06-2012 21:15:00 14.3 C 11.67 g/m*3 14.3 C 3.2 km/h
833 06-06-2012 21:20:00 14.2 C 11.6 g/m*3 14.2 C 1.6 km/h
834 06-06-2012 21:25:00 14.2 C 11.6 g/m*3 14.2 C 1.6 km/h
835 06-06-2012 21:30:00 14.1 C 11.53 g/m*3 14.1 C 1.6 km/h
836 06-06-2012 21:35:00 13.9 C 11.39 g/m*3 13.9 C 3.2 km/h
837 06-06-2012 21:40:00 13.9 C 11.39 g/m*3 13.9 C 1.6 km/h
838 06-06-2012 21:45:00 13.8 C 11.32 g/m*3 13.8 C 0 km/h
839 06-06-2012 21:50:00 13.7 C 11.25 g/m*3 13.7 C 0 km/h
840 06-06-2012 21:55:00 13.7 C 11.25 g/m*3 13.7 C 0 km/h
841 06-06-2012 22:00:00 13.5 C 11.11 g/m*3 13.5 C 0 km/h
842 06-06-2012 22:05:00 13.4 C 11.04 g/m*3 13.4 C 0 km/h
843 06-06-2012 22:10:00 13.3 C 10.98 g/m*3 13.3 C 0 km/h
844 06-06-2012 22:15:00 13.3 C 11.09 g/m*3 13.3 C 1.6 km/h
845 06-06-2012 22:20:00 13.3 C 11.09 g/m*3 13.3 C 0 km/h
846 06-06-2012 22:25:00 13.3 C 11.09 g/m*3 13.3 C 0 km/h
847 06-06-2012 22:30:00 13.3 C 11.09 g/m*3 13.3 C 1.6 km/h
848 06-06-2012 22:35:00 13.2 C 11.02 g/m*3 13.2 C 0 km/h
849 06-06-2012 22:40:00 13.2 C 11.02 g/m*3 13.2 C 1.6 km/h
850 06-06-2012 22:45:00 13.1 C 10.95 g/m*3 13.1 C 0 km/h
Sensor: Nr:Datum:Temp:Abs-Feuchte:Windchill:Wind:
Aussen-T/F 851 06-06-2012 22:50:00 13.1 C 10.95 g/m*3 13.1 C 0 km/h
852 06-06-2012 22:55:00 13 C 10.89 g/m*3 13 C 0 km/h
853 06-06-2012 23:00:00 13 C 10.89 g/m*3 13 C 1.6 km/h
854 06-06-2012 23:05:00 12.9 C 10.82 g/m*3 12.9 C 3.2 km/h
855 06-06-2012 23:10:00 12.9 C 10.82 g/m*3 12.9 C 1.6 km/h
856 06-06-2012 23:15:00 12.8 C 10.75 g/m*3 12.8 C 1.6 km/h
857 06-06-2012 23:20:00 12.8 C 10.75 g/m*3 12.8 C 1.6 km/h
858 06-06-2012 23:25:00 12.7 C 10.69 g/m*3 12.7 C 0 km/h
859 06-06-2012 23:30:00 12.7 C 10.69 g/m*3 12.7 C 1.6 km/h
860 06-06-2012 23:35:00 12.6 C 10.62 g/m*3 12.6 C 0 km/h
861 06-06-2012 23:40:00 12.6 C 10.62 g/m*3 12.6 C 0 km/h
862 06-06-2012 23:45:00 12.6 C 10.62 g/m*3 12.6 C 1.6 km/h
863 06-06-2012 23:50:00 12.6 C 10.62 g/m*3 12.6 C 0 km/h
864 06-06-2012 23:55:00 12.6 C 10.62 g/m*3 12.6 C 0 km/h

Legende:
   Min
   Max


Maximal/Minimal-Werte vom 04.06.2012 - 06.06.2012

Sensor Min Max Avg
Temp
(Aussen-T/F)
8.4 °C
05-06-2012  08:00:00
20.3 °C
04-06-2012  15:20:00
12.85 °C
Abs-Feuchte
(Aussen-T/F)
5.61 g/m*3
05-06-2012  14:05:00
13.54 g/m*3
06-06-2012  16:50:00
9.02 g/m*3
Windchill
(Aussen-T/F)
6.23 C
04-06-2012  22:10:00
20.3 C
04-06-2012  15:20:00
12.75 C

Die Daten stammen von einer Davis Vantage Pro 2 Wetter-Station und werden unter Linux mit der Software wview2wettercgi und aufbereitet. Alle Angaben erfolgen ohne Gewähr für ihre Vollständigkeit oder Richtigkeit.
Kontakt: Rainer Krienke krienke@uni-koblenz.de . Meine Webseiten an der Uni Koblenz oder privat.
Version: $Revision: 0.78 $